Weather History for Adrian, MI

Change the Weather History Date:

Tuesday, February 12, 2013

  Actual Average Record
Temperature  
Mean Temperature 31 °F -  
Max Temperature 34 °F 32 °F 54 °F (1984)
Min Temperature 28 °F 13 °F -15 °F (2014)
Degree Days  
Heating Degree Days 34    
Moisture  
Dew Point 22 °F    
Average Humidity 69    
Maximum Humidity 75    
Minimum Humidity 64    
Precipitation  
Precipitation 0.00 in - - ()
Sea Level Pressure  
Sea Level Pressure 30.01 in    
Wind  
Wind Speed 12 mph (WNW)    
Max Wind Speed 20 mph    
Max Gust Speed 28 mph    
Visibility 10 miles    
Events      
Averages and records for this station are not official NWS values.
T = Trace of Precipitation, MM = Missing Value Source: NWS Daily Summary

Daily Weather History Graph

Daily Weather History Graph

Search for Another Location

Airport:

Trip Planner

Search our weather history database for the weather conditions in past years. The results will help you decide how hot, cold, wet, or windy it might be!

Date:

Astronomy

Feb. 12, 2013 Rise Set
Actual Time 7:35 AM EST 6:05 PM EST
Civil Twilight 7:06 AM EST 6:34 PM EST
Nautical Twilight 6:34 AM EST 7:07 PM EST
Astronomical Twilight 6:01 AM EST 7:39 PM EST
Moon 8:29 AM EST (2/12) 9:09 PM EST (2/12)
Length of Visible Light 11h 27m
Length of Day
10h 30m
Waxing Crescent, 7% of the Moon is Illuminated
Feb 12
Waxing Crescent
Feb 17
First Quarter
Feb 25
Full
Mar 4
Last Quarter
Mar 11
New

Hourly Weather History & Observations

Time (EST) Temp. Windchill Dew Point Humidity Pressure Visibility Wind Dir Wind Speed Gust Speed Precip Events Conditions
12:34 AM 30.2 °F 17.8 °F 21.2 °F 69% 29.92 in 10.0 mi WNW 19.6 mph 25.3 mph N/A   Overcast
12:43 AM 30.2 °F 19.3 °F 21.2 °F 69% 29.93 in 10.0 mi WNW 15.0 mph 27.6 mph N/A   Overcast
12:53 AM 30.9 °F 20.7 °F 21.0 °F 67% 29.96 in 10.0 mi WNW 13.8 mph 23.0 mph N/A   Overcast
1:53 AM 30.9 °F 19.4 °F 21.0 °F 67% 29.98 in 10.0 mi West 17.3 mph 25.3 mph N/A   Overcast
2:53 AM 30.9 °F 20.7 °F 21.9 °F 69% 30.00 in 10.0 mi WNW 13.8 mph 24.2 mph N/A   Overcast
3:53 AM 30.9 °F 24.3 °F 21.9 °F 69% 30.01 in 10.0 mi WNW 6.9 mph 16.1 mph N/A   Overcast
4:53 AM 30.9 °F 21.7 °F 21.0 °F 67% 30.03 in 10.0 mi WNW 11.5 mph 20.7 mph N/A   Overcast
5:53 AM 30.0 °F 19.1 °F 21.0 °F 69% 30.04 in 10.0 mi WNW 15.0 mph 21.9 mph N/A   Overcast
6:53 AM 30.0 °F 20.5 °F 21.9 °F 72% 30.06 in 10.0 mi WNW 11.5 mph - N/A   Overcast
7:53 AM 30.0 °F 23.2 °F 21.9 °F 72% 30.07 in 10.0 mi NW 6.9 mph - N/A   Overcast
8:53 AM 28.9 °F 19.8 °F 21.9 °F 75% 30.09 in 10.0 mi West 10.4 mph - N/A   Overcast
9:53 AM 30.0 °F 21.1 °F 21.9 °F 72% 30.10 in 10.0 mi WNW 10.4 mph 18.4 mph N/A   Overcast
10:53 AM 30.0 °F 22.4 °F 21.9 °F 72% 30.09 in 10.0 mi West 8.1 mph - N/A   Overcast
11:53 AM 30.9 °F 22.8 °F 21.9 °F 69% 30.09 in 10.0 mi West 9.2 mph - N/A   Overcast
12:53 PM 30.9 °F 22.8 °F 21.9 °F 69% 30.07 in 10.0 mi West 9.2 mph - N/A   Overcast
1:53 PM 33.1 °F 25.5 °F 23.0 °F 66% 30.00 in 10.0 mi West 9.2 mph - N/A   Overcast
2:53 PM 33.1 °F 26.1 °F 21.9 °F 64% 30.00 in 10.0 mi West 8.1 mph - N/A   Mostly Cloudy
3:53 PM 34.0 °F 25.5 °F 23.0 °F 64% 30.01 in 10.0 mi West 11.5 mph - N/A   Overcast
4:53 PM 33.1 °F 26.1 °F 23.0 °F 66% 30.01 in 10.0 mi West 8.1 mph - N/A   Overcast
5:12 PM 33.8 °F 26.4 °F 23.0 °F 65% 29.97 in 10.0 mi West 9.2 mph - N/A   Overcast
5:53 PM 32.0 °F 27.5 °F 23.0 °F 69% 30.01 in 10.0 mi WNW 4.6 mph - N/A   Overcast
6:53 PM 32.0 °F 26.4 °F 23.0 °F 69% 30.00 in 10.0 mi WNW 5.8 mph - N/A   Overcast
7:49 PM 32.0 °F 23.6 °F 21.2 °F 64% 29.97 in 10.0 mi WNW 10.4 mph 17.3 mph N/A   Overcast
7:53 PM 32.0 °F 23.6 °F 21.9 °F 66% 30.00 in 10.0 mi WNW 10.4 mph 17.3 mph N/A   Overcast
8:53 PM 30.9 °F 24.3 °F 21.9 °F 69% 29.99 in 10.0 mi NW 6.9 mph - N/A   Overcast
9:53 PM 28.9 °F 23.9 °F 21.9 °F 75% 29.97 in 10.0 mi NW 4.6 mph - N/A   Overcast
10:53 PM 28.9 °F 23.9 °F 21.0 °F 72% 29.97 in 10.0 mi NNW 4.6 mph - N/A   Overcast
11:53 PM 28.0 °F 20.8 °F 21.0 °F 75% 29.96 in 10.0 mi WNW 6.9 mph - N/A   Overcast